STARLINK-11482, 62520

Orbit data source: Space-Track

STARLINK-11482, 62520 is a payload satellite owned by SpaceX/Seattle (US) in LEO that was launched on Wed, 08 Jan 2025 UTC via an FALCON 9 launch vehicle from the Air Force Eastern Test Range (AFETR). Payload-class satellites include a variety of spacecraft equipped with specific instruments for various scientific and technological missions. These include communications satellites like Starlink; space stations such as the ISS; scientific satellites like the Hubble; Earth observation satellites from companies like Planet Labs, Umbra, and HawkEye 360; GPS; miniature CubeSats for education and research; and military/defense satellites.

Loading next visibility...
Identifier
62520, 2025-004K
Orbit
LEO
Country
Flag of USUS
Related business
Manufacturer
SpaceX/Seattle
Mission
Operational Commercial Communications
Bus & Motor
STARLINK V2MD, Unknown motor
Mass
960 kg wet, ~910 kg dry
Launch date (UTC)
2025-01-08 (1 year ago)
Launch vehicle
FALCON 9
Launch site
Air Force Eastern Test Range (AFETR)
Object type
Payload
Rocket body
Debris
Shape & HBR
Box + 2 Pan, 18.1 m
Radar Cross Section
36.964 m², Large (>1 m²)

Expand to show TLE details & history
Last TLE update: 17 hours ago

TLE from 17 hours ago
0 STARLINK-11482
1 62520U 25004K   26125.60598836  .00302711  00000-0  22591-2 0  9992
2 62520  42.9996  87.3260 0001701 288.3510  71.7173 15.71035481 76169
Epoch: 2026-05-05T14:32Z
TLE epoch observation values (Epoch: 2026-05-05T14:32:37.394Z)
Latitude
0.00001°
Longitude
5.69178°
Altitude
355.348 km
Speed
7.698 km/s
True Right ascension
05h 49m 18s
True Declination
0° 00' 00"
Sunlit
Object was in daylight at epoch
Visualization orbit readout
Latitude
Unknown
Longitude
Unknown
Altitude
Unknown
Speed
Unknown
Apparent Right ascension
Unknown
Apparent Declination
Unknown
Sunlit
N/A
Visualization observer readout
Local Sidereal Time
15:41:08
Azimuth
Unknown
Elevation
Unknown
Doppler factor
Unknown
Orbital elements
Apogee altitude
359.064 km
Perigee altitude
356.772 km
Semi-major axis
6,736.055 km
Eccentricity
0.00017
Inclination
42.9996°
RAAN
87.326°
Arg. of periapsis
288.351°
True anomaly
71.73581°
Mean anomaly
71.7173°
Eccentric anomaly
71.72655°
Mean motion
3.92586 °/min
Orbital period
91.7 mins
BSTAR
0.0022591
Loading maneuver chart data...
Computing Atmospheric mass density...
Loading historical data...
Loading historical data...
Loading historical data...
Loading historical data...
Loading historical data...
Loading historical data...
Loading historical data...

Documentation

Showing up to 5 results
|